{"data":{"norad_id":61248,"epoch":"2026-09-21T01:12:33.080832Z","epoch_age_seconds":144521,"freshness":"FRESH","line1":"1 61248U 24175F   26264.05038288 -.00002641  00000+0 -16956-4 0  9999","line2":"2 61248  53.1611 172.9468 0001552  53.8148 306.3014 15.69694692114054","mean_motion":15.69694692,"eccentricity":0.0001552,"inclination_deg":53.1611,"raan_deg":172.9468,"arg_perigee_deg":53.8148,"mean_anomaly_deg":306.3014,"bstar":-1.6956e-5,"rev_number":11405,"period_min":91.737584852584,"perigee_km":358.72483315944,"apogee_km":360.81627966495,"semimajor_km":6737.9075564122,"source":"CELESTRAK","updated_at":"2026-09-22T09:00:49.348451Z"}}